Location: Little Arabia
(41.4620°N, 81.7687°W)
Time: 20:55:00
(UTC+00:00)

NOSS 3-3 (C) - Pass Details

Date: 29 October 2020
Orbit: 827 x 1385 km, 63.5° (Epoch: 29 November)

Event Time Altitude Azimuth Distance (km) Brightness Sun altitude
Rises 23:23:36 0° 204° (SSW) 3,380 7.3 -11.5°
Reaches altitude 10° 23:25:58 10° 202° (SSW) 2,480 6.5 -11.9°
Maximum altitude 23:31:37 68° 121° (ESE) 981 3.8 -13.0°
Drops below altitude 10° 23:37:58 10° 39° (NE) 2,778 6.0 -14.2°
Enters shadow 23:38:42 - 39° (NE) 3,048 6.2 -14.3°
